CSG-2

Last updated on Thu Oct 30 2025 00:02:32 GMT+0000 (Coordinated Universal Time)

1 51444U 22008A 25302.53676625 .00000644 00000+0 87470-4 0 9995 2 51444 97.8891 124.5171 0001458 86.1926 273.9453 14.82143571202422
UTC large
Height (km)
Speed (km/s)
/
Latitude / Longitude
Inclination (degrees)
Orbital Period (minutes)
Azimuth
Elevation
Range (km)
Doppler Factor

Next 0 passes for location: London (51.5072 / 0.1276)

Sorry there are no passes over London.